Location: Lafig�re
(44.4503°N, 4.0357°E)
Time: 08:59:02
(UTC+00:00)

Tiros 1 - Pass Details

Date: 30 January 2021
Orbit: 630 x 664 km, 48.4° (Epoch: 07 March)

Event Time Altitude Azimuth Distance (km) Brightness Sun altitude
Rises 20:29:23 0° 292° (WNW) 2,925 11.4 -39.0°
Reaches altitude 10° 20:31:44 10° 290° (WNW) 2,012 10.4 -39.4°
Enters shadow 20:32:05 12° 289° (WNW) 1,873 10.2 -39.5°
